{"data":{"norad_id":51809,"epoch":"2026-05-25T00:09:37.369728Z","epoch_age_seconds":74617,"freshness":"FRESH","line1":"1 51809U 22017AT  26145.00668252 -.00000119  00000+0  10615-4 0  9990","line2":"2 51809  53.2163 356.4809 0001552  92.2861 267.8309 15.08837500235586","mean_motion":15.088375,"eccentricity":0.0001552,"inclination_deg":53.2163,"raan_deg":356.4809,"arg_perigee_deg":92.2861,"mean_anomaly_deg":267.8309,"bstar":1.0615e-5,"rev_number":23558,"period_min":95.437712808702,"perigee_km":538.67737425218,"apogee_km":540.82468669684,"semimajor_km":6917.8880304745,"source":"CELESTRAK","updated_at":"2026-05-25T13:38:16.957690Z"}}